JST226 NZCH-NZAA

Flight info

Callsign JST226
Flight time N/A
Altitude 37000
Route GLENN Y175 OMKUN Y655 POKOM Q277 DAVEE
Aircraft A320/M-SDE3FGHIRWY/LB1

Departure

Time 2026-04-28 19:28
Airport Christchurch International Airport (NZCH)

Arrival

Time N/A
Airport Auckland International Airport (NZAA)
Time Latitude Longitude Altitude Speed Heading
2026-04-28 19:08 -43.48896 172.53754 109 ft 0 kts 130°
2026-04-28 19:20 -43.48886 172.53738 107 ft 4 kts 131°
2026-04-28 19:20 -43.48868 172.53711 107 ft 4 kts 134°
2026-04-28 19:20 -43.48849 172.53684 109 ft 4 kts 139°
2026-04-28 19:21 -43.48827 172.53662 108 ft 4 kts 152°
2026-04-28 19:21 -43.48805 172.53653 108 ft 4 kts 202°
2026-04-28 19:21 -43.48799 172.53656 108 ft 0 kts 220°
2026-04-28 19:23 -43.48800 172.53655 108 ft 1 kts 220°
2026-04-28 19:23 -43.48813 172.53639 108 ft 7 kts 220°
2026-04-28 19:23 -43.48873 172.53571 108 ft 13 kts 220°
2026-04-28 19:24 -43.48952 172.53491 112 ft 14 kts 219°
2026-04-28 19:24 -43.49029 172.53404 110 ft 17 kts 219°
2026-04-28 19:24 -43.49125 172.53295 114 ft 18 kts 219°
2026-04-28 19:24 -43.49224 172.53180 116 ft 20 kts 220°
2026-04-28 19:25 -43.49329 172.53058 119 ft 19 kts 219°
2026-04-28 19:25 -43.49431 172.52940 121 ft 20 kts 220°
2026-04-28 19:25 -43.49538 172.52815 126 ft 20 kts 220°
2026-04-28 19:25 -43.49654 172.52680 125 ft 24 kts 220°
2026-04-28 19:26 -43.49752 172.52567 124 ft 8 kts 220°
2026-04-28 19:26 -43.49796 172.52492 126 ft 12 kts 256°
2026-04-28 19:26 -43.49791 172.52374 126 ft 10 kts 275°
2026-04-28 19:26 -43.49788 172.52306 122 ft 8 kts 273°
2026-04-28 19:27 -43.49766 172.52239 123 ft 3 kts 318°
2026-04-28 19:27 -43.49729 172.52246 123 ft 9 kts 38°
2026-04-28 19:27 -43.49720 172.52257 125 ft 0 kts 41°
2026-04-28 19:27 -43.49548 172.52459 124 ft 68 kts 40°
2026-04-28 19:28 -43.49033 172.53056 113 ft 125 kts 40°
2026-04-28 19:28 -43.48246 172.53953 163 ft 163 kts 40°
2026-04-28 19:28 -43.47395 172.54950 794 ft 160 kts 38°
2026-04-28 19:28 -43.46444 172.55734 1389 ft 160 kts 22°
2026-04-28 19:29 -43.45402 172.56380 1840 ft 172 kts 21°
2026-04-28 19:29 -43.44645 172.56840 2017 ft 187 kts 21°
2026-04-28 19:29 -43.42926 172.57889 2359 ft 218 kts 21°
2026-04-28 19:29 -43.41466 172.58794 2694 ft 243 kts 22°
2026-04-28 19:30 -43.39855 172.59804 3165 ft 264 kts 22°
2026-04-28 19:30 -43.38164 172.60878 3973 ft 271 kts 22°
2026-04-28 19:30 -43.36446 172.61981 4876 ft 275 kts 24°
2026-04-28 19:30 -43.34703 172.63103 5763 ft 278 kts 24°
2026-04-28 19:31 -43.32928 172.64169 6680 ft 279 kts 20°
2026-04-28 19:31 -43.31089 172.65072 7521 ft 282 kts 17°
2026-04-28 19:31 -43.29211 172.65894 8352 ft 285 kts 15°
2026-04-28 19:31 -43.27298 172.66701 9165 ft 289 kts 15°
2026-04-28 19:32 -43.25390 172.67507 9954 ft 293 kts 15°
2026-04-28 19:32 -43.23434 172.68350 10688 ft 296 kts 15°
2026-04-28 19:32 -43.21433 172.69226 11171 ft 311 kts 16°
2026-04-28 19:32 -43.19293 172.70171 11367 ft 333 kts 16°
2026-04-28 19:33 -43.17053 172.71166 11873 ft 342 kts 16°
2026-04-28 19:33 -43.14764 172.72182 12547 ft 346 kts 16°
2026-04-28 19:33 -43.12460 172.73204 13240 ft 350 kts 17°
2026-04-28 19:33 -43.10137 172.74236 13938 ft 353 kts 17°
2026-04-28 19:34 -43.07796 172.75280 14536 ft 356 kts 17°
2026-04-28 19:34 -43.05433 172.76333 15117 ft 359 kts 17°
2026-04-28 19:34 -43.03046 172.77393 15697 ft 362 kts 17°
2026-04-28 19:34 -43.00637 172.78460 16266 ft 365 kts 17°
2026-04-28 19:35 -42.98209 172.79536 16832 ft 369 kts 17°
2026-04-28 19:35 -42.95761 172.80618 17427 ft 372 kts 17°
2026-04-28 19:35 -42.93288 172.81706 17992 ft 375 kts 17°
2026-04-28 19:35 -42.90796 172.82796 18561 ft 378 kts 17°
2026-04-28 19:36 -42.88282 172.83896 19070 ft 381 kts 17°
2026-04-28 19:36 -42.85767 172.85069 19589 ft 384 kts 19°
2026-04-28 19:36 -42.83249 172.86344 20105 ft 387 kts 20°
2026-04-28 19:36 -42.80726 172.87678 20618 ft 390 kts 20°
2026-04-28 19:37 -42.78224 172.89022 21098 ft 393 kts 20°
2026-04-28 19:37 -42.76501 172.89946 21419 ft 395 kts 20°
2026-04-28 19:37 -42.73090 172.91752 22023 ft 399 kts 19°
2026-04-28 19:37 -42.70486 172.93108 22484 ft 402 kts 19°
2026-04-28 19:38 -42.67864 172.94459 22939 ft 405 kts 19°
2026-04-28 19:38 -42.65218 172.95818 23379 ft 408 kts 19°
2026-04-28 19:38 -42.62549 172.97181 23830 ft 411 kts 19°
2026-04-28 19:38 -42.59865 172.98552 24203 ft 413 kts 19°
2026-04-28 19:39 -42.57164 172.99935 24583 ft 416 kts 19°
2026-04-28 19:39 -42.54446 173.01327 24974 ft 418 kts 19°
2026-04-28 19:39 -42.51722 173.02723 25365 ft 420 kts 20°
2026-04-28 19:39 -42.48986 173.04127 25751 ft 422 kts 20°
2026-04-28 19:40 -42.46236 173.05543 26145 ft 424 kts 20°
2026-04-28 19:40 -42.43469 173.06966 26518 ft 426 kts 20°
2026-04-28 19:40 -42.40691 173.08393 26883 ft 428 kts 20°
2026-04-28 19:40 -42.37900 173.09824 27274 ft 430 kts 21°
2026-04-28 19:41 -42.35094 173.11255 27650 ft 432 kts 21°
2026-04-28 19:41 -42.32269 173.12689 28029 ft 434 kts 21°
2026-04-28 19:41 -42.29472 173.14107 28390 ft 436 kts 21°
2026-04-28 19:41 -42.26628 173.15547 28755 ft 438 kts 20°
2026-04-28 19:42 -42.23765 173.16998 29116 ft 440 kts 21°
2026-04-28 19:42 -42.20888 173.18458 29470 ft 443 kts 21°
2026-04-28 19:42 -42.17998 173.19922 29842 ft 445 kts 21°
2026-04-28 19:42 -42.16040 173.20915 30104 ft 446 kts 21°
2026-04-28 19:43 -42.12186 173.22868 30602 ft 447 kts 21°
2026-04-28 19:43 -42.09282 173.24336 31030 ft 445 kts 21°
2026-04-28 19:43 -42.06388 173.25799 31472 ft 444 kts 21°
2026-04-28 19:43 -42.03500 173.27257 31909 ft 442 kts 21°
2026-04-28 19:44 -42.00625 173.28708 32346 ft 441 kts 21°
2026-04-28 19:44 -41.97759 173.30151 32807 ft 439 kts 22°
2026-04-28 19:44 -41.94904 173.31586 33245 ft 437 kts 21°
2026-04-28 19:44 -41.92065 173.33009 33718 ft 435 kts 22°
2026-04-28 19:45 -41.89236 173.34430 34177 ft 433 kts 22°
2026-04-28 19:45 -41.86412 173.35847 34561 ft 432 kts 21°
2026-04-28 19:45 -41.83596 173.37255 34879 ft 432 kts 21°
2026-04-28 19:45 -41.80774 173.38664 35173 ft 432 kts 22°
2026-04-28 19:46 -41.77958 173.40071 35461 ft 432 kts 21°
2026-04-28 19:46 -41.75139 173.41477 35750 ft 432 kts 21°
2026-04-28 19:46 -41.72354 173.42868 36021 ft 433 kts 21°
2026-04-28 19:46 -41.69497 173.44299 36300 ft 433 kts 22°
2026-04-28 19:47 -41.66677 173.45707 36576 ft 433 kts 21°
2026-04-28 19:47 -41.63882 173.47097 36827 ft 433 kts 21°
2026-04-28 19:47 -41.61054 173.48498 37083 ft 433 kts 21°
2026-04-28 19:47 -41.58217 173.49902 37270 ft 435 kts 21°
2026-04-28 19:48 -41.53464 173.52256 37308 ft 441 kts 21°
2026-04-28 19:48 -41.47691 173.55107 37312 ft 443 kts 21°
2026-04-28 19:49 -41.41898 173.57967 37313 ft 444 kts 21°
2026-04-28 19:49 -41.36106 173.60819 37312 ft 443 kts 22°
2026-04-28 19:50 -41.27416 173.65080 37308 ft 444 kts 21°
2026-04-28 19:51 -41.21625 173.67919 37318 ft 444 kts 21°
2026-04-28 19:51 -41.15870 173.70737 37325 ft 444 kts 21°
2026-04-28 19:52 -41.10082 173.73570 37326 ft 443 kts 21°
2026-04-28 19:52 -41.04290 173.76397 37323 ft 443 kts 21°
2026-04-28 19:53 -40.98505 173.79213 37331 ft 443 kts 21°
2026-04-28 19:53 -40.92713 173.82028 37335 ft 443 kts 21°
2026-04-28 19:54 -40.86928 173.84829 37333 ft 443 kts 21°
2026-04-28 19:54 -40.81151 173.87629 37333 ft 442 kts 21°
2026-04-28 19:55 -40.75407 173.90410 37339 ft 442 kts 21°